Location: Lahitte
(43.6596°N, 0.6805°E)
Time: 13:18:57
(UTC+00:00)

COSMOS 2428 - Pass Details

Date: 15 May 2026
Orbit: 844 x 855 km, 70.9° (Epoch: 11 June)

Event Time Altitude Azimuth Distance (km) Brightness Sun altitude
Rises 22:50:41 0° 336° (NNW) 3,422 7.2 -25.7°
Reaches altitude 10° 22:53:10 10° 339° (NNW) 2,481 6.2 -25.8°
Maximum altitude 22:58:51 70° 63° (ENE) 902 2.8 -26.0°
Enters shadow 22:59:32 63° 106° (ESE) 943 2.7 -26.1°
